TimePST,TemperatureF,Dew PointF,Humidity,Sea Level PressureIn,VisibilityMPH,Wind Direction,Wind SpeedMPH,Gust SpeedMPH,PrecipitationIn,Events,Conditions,WindDirDegrees,DateUTC
12:53 AM,44.1,43.0,96,30.05,9.0,Calm,Calm,-,N/A,,Clear,0,2012-11-25 08:53:00
1:53 AM,46.0,45.0,96,30.06,10.0,NW,3.5,-,N/A,,Clear,310,2012-11-25 09:53:00
2:53 AM,46.9,45.0,93,30.05,10.0,Calm,Calm,-,N/A,,Clear,0,2012-11-25 10:53:00
3:53 AM,45.0,43.0,93,30.05,10.0,Calm,Calm,-,N/A,,Clear,0,2012-11-25 11:53:00
4:53 AM,44.1,42.1,93,30.04,10.0,ESE,3.5,-,N/A,,Clear,110,2012-11-25 12:53:00
5:53 AM,44.1,42.1,93,30.04,10.0,North,3.5,-,N/A,,Clear,10,2012-11-25 13:53:00
6:53 AM,45.0,42.1,90,30.03,10.0,Calm,Calm,-,N/A,,Clear,0,2012-11-25 14:53:00
7:53 AM,45.0,43.0,93,30.04,10.0,West,4.6,-,N/A,,Clear,280,2012-11-25 15:53:00
8:53 AM,50.0,45.0,83,30.04,10.0,WNW,3.5,-,N/A,,Clear,290,2012-11-25 16:53:00
9:53 AM,53.1,46.0,77,30.05,10.0,WNW,4.6,-,N/A,,Clear,300,2012-11-25 17:53:00
10:53 AM,57.0,48.0,72,30.04,10.0,WNW,3.5,-,N/A,,Clear,290,2012-11-25 18:53:00
11:53 AM,59.0,46.9,64,30.01,10.0,West,5.8,-,N/A,,Clear,280,2012-11-25 19:53:00
12:53 PM,61.0,48.9,64,29.99,10.0,West,4.6,-,N/A,,Clear,260,2012-11-25 20:53:00
1:53 PM,62.1,48.9,62,29.97,10.0,Variable,3.5,-,N/A,,Clear,0,2012-11-25 21:53:00
2:53 PM,63.0,48.9,60,29.96,10.0,Variable,3.5,-,N/A,,Clear,0,2012-11-25 22:53:00
3:53 PM,62.1,48.9,62,29.96,10.0,Calm,Calm,-,N/A,,Clear,0,2012-11-25 23:53:00
4:53 PM,59.0,48.0,67,29.94,10.0,Calm,Calm,-,N/A,,Clear,0,2012-11-26 00:53:00
5:53 PM,53.1,48.0,83,29.95,10.0,Calm,Calm,-,N/A,,Clear,0,2012-11-26 01:53:00
6:53 PM,53.1,48.0,83,29.96,10.0,Calm,Calm,-,N/A,,Clear,0,2012-11-26 02:53:00
7:53 PM,50.0,46.9,89,29.97,9.0,ENE,3.5,-,N/A,,Clear,70,2012-11-26 03:53:00
8:53 PM,48.9,46.9,93,29.98,10.0,Calm,Calm,-,N/A,,Clear,0,2012-11-26 04:53:00
9:53 PM,46.9,46.0,97,29.98,9.0,NE,3.5,-,N/A,,Clear,50,2012-11-26 05:53:00
10:53 PM,46.9,45.0,93,29.99,10.0,Calm,Calm,-,N/A,,Clear,0,2012-11-26 06:53:00
11:53 PM,48.0,45.0,89,29.99,10.0,Calm,Calm,-,N/A,,Clear,0,2012-11-26 07:53:00